Location: Lane
(33.5226°N, 79.8788°W)
Time: 07:30:49
(UTC+00:00)

SR - Pass Details

Date: 03 October 2022
Orbit: 577 x 875 km, 66.7° (Epoch: 27 November)

Event Time Altitude Azimuth Distance (km) Brightness Sun altitude
Rises 01:31:08 0° 200° (SSW) 3,370 ? -31.5°
Enters shadow 01:32:00 - 199° (SSW) 3,041 ? -31.6°
Reaches altitude 10° 01:33:32 10° 198° (SSW) 2,467 - -31.9°
Maximum altitude 01:39:18 76° 114° (ESE) 899 - -33.1°
Drops below altitude 10° 01:45:12 10° 30° (NNE) 2,526 - -34.2°
Sets 01:47:41 0° 28° (NNE) 3,457 - -34.7°
